N7BDR Weather Reports


Display with metric or nautical units.
time (UTC)temp
F
wind
direction
speed
MPH
gust
MPH
rain 1hr
in
rain 24hr
in
rain mn
in
humidity
%
barometer
mb
20260903052627 70 275 0.0 0.0 0.00 0.00 0.00 26 1003.3
20260903052111 70 275 0.0 0.0 0.00 0.00 0.00 25 1003.3
20260903051552 70 275 0.0 0.0 0.00 0.00 0.00 25 1003.4
20260903051042 71 275 0.0 1.0 0.00 0.00 0.00 25 1003.4
20260903050541 71 275 0.0 1.0 0.00 0.00 0.00 24 1003.4
20260903050036 71 276 0.0 0.0 0.00 0.00 0.00 26 1003.3
20260903045520 71 274 0.0 0.0 0.00 0.00 0.00 25 1003.2
20260903045013 71 274 0.0 0.0 0.00 0.00 0.00 26 1003.3
20260903044512 71 274 0.0 0.0 0.00 0.00 0.00 25 1003.3
20260903044012 71 274 0.0 0.0 0.00 0.00 0.00 25 1003.5
20260903043505 71 274 0.0 0.0 0.00 0.00 0.00 24 1003.5
20260903042951 72 274 0.0 0.0 0.00 0.00 0.00 23 1003.5
20260903042449 72 272 0.0 0.0 0.00 0.00 0.00 24 1003.3
20260903041935 72 270 0.0 1.0 0.00 0.00 0.00 24 1003.3
20260903041426 72 274 0.0 0.0 0.00 0.00 0.00 24 1003.3
20260903040921 72 269 0.0 2.0 0.00 0.00 0.00 25 1003.3
20260903040423 72 258 0.0 0.0 0.00 0.00 0.00 25 1003.3
20260903034706 73 272 0.0 0.0 0.00 0.00 0.00 24 1002.9
20260903034202 73 270 0.0 2.0 0.00 0.00 0.00 24 1002.9
20260903033643 73 272 0.0 0.0 0.00 0.00 0.00 23 1002.9
20260903032507 73 277 0.0 2.0 0.00 0.00 0.00 23 1002.8
20260903031956 73 272 0.0 2.0 0.00 0.00 0.00 24 1002.8
20260903031459 73 273 0.0 2.0 0.00 0.00 0.00 24 1002.6
20260903031004 73 287 0.0 0.0 0.00 0.00 0.00 24 1002.6
20260903030456 73 282 0.0 0.0 0.00 0.00 0.00 24 1002.6
20260903025955 73 269 0.0 1.0 0.00 0.00 0.00 24 1002.5
20260903025450 73 279 0.0 0.0 0.00 0.00 0.00 24 1002.5
20260903024931 74 279 0.0 0.0 0.00 0.00 0.00 25 1002.4
20260903024425 74 279 0.0 0.0 0.00 0.00 0.00 24 1002.3
20260903023928 74 279 0.0 0.0 0.00 0.00 0.00 24 1002.2
20260903023430 75 272 0.0 1.0 0.00 0.00 0.00 24 1002.1
20260903022935 75 268 0.0 0.0 0.00 0.00 0.00 23 1002.2
20260903022438 75 263 0.0 0.0 0.00 0.00 0.00 22 1002.2
20260903021925 76 317 0.0 1.0 0.00 0.00 0.00 22 1002.2
20260903021426 76 291 0.0 2.0 0.00 0.00 0.00 22 1002.0
20260903020910 76 276 0.0 0.0 0.00 0.00 0.00 23 1002.1
20260903020352 77 317 0.0 0.0 0.00 0.00 0.00 22 1001.9
20260903015837 77 276 1.0 0.0 0.00 0.00 0.00 22 1001.9
20260903015329 78 261 4.0 11.0 0.00 0.00 0.00 21 1001.9
20260903014825 79 337 2.0 10.0 0.00 0.00 0.00 20 1001.9
20260903014324 80 335 1.0 5.0 0.00 0.00 0.00 18 1002.0
20260903013822 81 272 0.0 4.0 0.00 0.00 0.00 15 1001.9
20260903013306 81 272 0.0 6.0 0.00 0.00 0.00 15 1001.9
20260903012808 81 275 0.0 6.0 0.00 0.00 0.00 15 1001.9
20260903012302 81 271 0.0 6.0 0.00 0.00 0.00 14 1002.0
20260903011800 82 251 1.0 6.0 0.00 0.00 0.00 14 1002.0
20260903011259 82 262 2.0 10.0 0.00 0.00 0.00 13 1002.0
20260903010747 82 253 3.0 10.0 0.00 0.00 0.00 13 1002.1
20260903010238 82 267 3.0 10.0 0.00 0.00 0.00 14 1002.1
20260903005723 83 234 3.0 10.0 0.00 0.00 0.00 13 1002.1
20260903005214 83 176 3.0 10.0 0.00 0.00 0.00 14 1002.2
20260903003430 83 265 3.0 14.0 0.00 0.00 0.00 14 1002.2
20260903002937 83 227 4.0 14.0 0.00 0.00 0.00 14 1002.2
20260903002418 83 259 4.0 14.0 0.00 0.00 0.00 14 1002.3
20260903001909 83 253 4.0 14.0 0.00 0.00 0.00 13 1002.2
20260903001403 83 244 4.0 11.0 0.00 0.00 0.00 14 1002.3
20260903000243 83 256 3.0 11.0 0.00 0.00 0.00 13 1002.3
20260902235114 84 223 3.0 14.0 0.00 0.00 0.00 14 1002.2
20260902234006 84 252 5.0 14.0 0.00 0.00 0.00 13 1002.3
20260902233452 84 167 4.0 9.0 0.00 0.00 0.00 13 1002.4
20260902232959 84 186 3.0 9.0 0.00 0.00 0.00 14 1002.4
20260902232442 84 255 4.0 10.0 0.00 0.00 0.00 13 1002.5
20260902231952 84 253 5.0 10.0 0.00 0.00 0.00 15 1002.5
20260902230827 84 258 4.0 15.0 0.00 0.00 0.00 14 1002.6
20260902230312 84 272 6.0 15.0 0.00 0.00 0.00 14 1002.6
20260902225755 85 277 6.0 15.0 0.00 0.00 0.00 13 1002.6
20260902225245 85 267 5.0 17.0 0.00 0.00 0.00 14 1002.5
20260902224114 86 216 7.0 18.0 0.00 0.00 0.00 14 1002.4
20260902223559 86 187 7.0 18.0 0.00 0.00 0.00 15 1002.4
20260902223051 85 208 5.0 20.0 0.00 0.00 0.00 15 1002.6
20260902222549 86 265 6.0 20.0 0.00 0.00 0.00 15 1002.6
20260902222039 86 174 7.0 20.0 0.00 0.00 0.00 15 1002.6
20260902221538 86 214 5.0 20.0 0.00 0.00 0.00 16 1002.5
20260902221038 87 213 3.0 16.0 0.00 0.00 0.00 16 1002.7
20260902215920 85 259 5.0 14.0 0.00 0.00 0.00 15 1002.9
20260902215421 85 272 5.0 14.0 0.00 0.00 0.00 14 1002.9
20260902213624 85 257 5.0 14.0 0.00 0.00 0.00 15 1003.0
20260902213120 85 216 5.0 21.0 0.00 0.00 0.00 17 1003.1
20260902212610 84 256 7.0 21.0 0.00 0.00 0.00 17 1003.2
20260902212114 85 172 8.0 22.0 0.00 0.00 0.00 15 1003.2
20260902211616 85 161 7.0 22.0 0.00 0.00 0.00 16 1003.2
20260902211124 85 256 8.0 22.0 0.00 0.00 0.00 16 1003.1
20260902210630 85 178 8.0 22.0 0.00 0.00 0.00 16 1003.2
20260902210127 86 268 6.0 20.0 0.00 0.00 0.00 17 1003.2
20260902205613 86 216 6.0 16.0 0.00 0.00 0.00 19 1003.3
20260902205122 85 223 5.0 16.0 0.00 0.00 0.00 19 1003.2
20260902204625 85 232 6.0 15.0 0.00 0.00 0.00 20 1003.4
20260902204108 85 263 7.0 17.0 0.00 0.00 0.00 21 1003.5
20260902203618 85 177 7.0 17.0 0.00 0.00 0.00 20 1003.4
20260902203122 84 203 7.0 18.0 0.00 0.00 0.00 20 1003.5
20260902202614 84 152 7.0 18.0 0.00 0.00 0.00 20 1003.6
20260902201444 84 230 7.0 17.0 0.00 0.00 0.00 21 1003.6
20260902200952 83 259 7.0 17.0 0.00 0.00 0.00 21 1003.8
20260902200445 84 173 7.0 17.0 0.00 0.00 0.00 21 1003.9
20260902195944 84 162 7.0 20.0 0.00 0.00 0.00 23 1003.9
20260902195426 84 242 6.0 20.0 0.00 0.00 0.00 22 1004.0
20260902194931 84 195 7.0 20.0 0.00 0.00 0.00 22 1004.1
20260902194430 84 224 7.0 20.0 0.00 0.00 0.00 22 1004.2
20260902193932 85 268 6.0 19.0 0.00 0.00 0.00 21 1004.1
20260902192758 83 239 8.0 21.0 0.00 0.00 0.00 23 1004.2
20260902192252 83 198 8.0 21.0 0.00 0.00 0.00 25 1004.3
20260902191749 83 258 8.0 21.0 0.00 0.00 0.00 24 1004.2
20260902191246 83 233 7.0 20.0 0.00 0.00 0.00 23 1004.5
20260902190750 83 270 6.0 18.0 0.00 0.00 0.00 25 1004.4
20260902190235 83 174 7.0 25.0 0.00 0.00 0.00 25 1004.6
20260902185726 82 191 7.0 25.0 0.00 0.00 0.00 26 1004.7
20260902185215 82 258 8.0 25.0 0.00 0.00 0.00 26 1004.8
20260902184717 82 264 9.0 25.0 0.00 0.00 0.00 24 1004.8
20260902184223 82 195 8.0 25.0 0.00 0.00 0.00 26 1004.9
20260902182459 82 251 9.0 23.0 0.00 0.00 0.00 26 1005.1
20260902182002 82 287 8.0 23.0 0.00 0.00 0.00 28 1005.0
20260902181450 82 161 6.0 23.0 0.00 0.00 0.00 27 1004.9
20260902180958 82 260 7.0 23.0 0.00 0.00 0.00 27 1005.0
20260902180443 81 230 8.0 23.0 0.00 0.00 0.00 27 1005.1
20260902175949 81 244 9.0 23.0 0.00 0.00 0.00 27 1005.1
20260902175452 81 292 8.0 26.0 0.00 0.00 0.00 29 1005.2
20260902174947 81 230 7.0 26.0 0.00 0.00 0.00 28 1005.5
20260902174432 81 260 8.0 26.0 0.00 0.00 0.00 30 1005.5
20260902173939 81 220 9.0 26.0 0.00 0.00 0.00 29 1005.5
20260902173440 81 236 8.0 22.0 0.00 0.00 0.00 31 1005.3
20260902172934 81 131 9.0 22.0 0.00 0.00 0.00 30 1005.5
20260902172438 81 236 10.0 22.0 0.00 0.00 0.00 30 1005.5
20260902171933 81 259 9.0 22.0 0.00 0.00 0.00 30 1005.5
20260902171438 80 149 9.0 22.0 0.00 0.00 0.00 31 1005.5
20260902170947 80 187 8.0 22.0 0.00 0.00 0.00 30 1005.7
20260902170445 80 263 8.0 23.0 0.00 0.00 0.00 30 1005.6
20260902165942 80 214 9.0 23.0 0.00 0.00 0.00 31 1005.5
20260902165438 80 219 9.0 23.0 0.00 0.00 0.00 30 1005.5
20260902164924 80 229 7.0 23.0 0.00 0.00 0.00 30 1005.6
20260902164418 80 230 6.0 19.0 0.00 0.00 0.00 31 1005.5
20260902163910 79 268 6.0 17.0 0.00 0.00 0.00 33 1005.4
20260902162742 79 254 6.0 17.0 0.00 0.00 0.00 35 1005.6
20260902161625 79 222 6.0 13.0 0.00 0.00 0.00 35 1005.6
20260902161128 79 188 6.0 16.0 0.00 0.00 0.00 37 1005.8
20260902155415 78 246 6.0 16.0 0.00 0.00 0.00 36 1005.8
20260902154922 78 181 4.0 13.0 0.00 0.00 0.00 37 1005.9
20260902154409 78 272 4.0 13.0 0.00 0.00 0.00 37 1005.8
20260902153918 77 265 5.0 23.0 0.00 0.00 0.00 37 1005.8
20260902153416 77 178 6.0 23.0 0.00 0.00 0.00 37 1006.0
20260902152911 77 268 6.0 23.0 0.00 0.00 0.00 38 1005.9
20260902151803 76 266 6.0 16.0 0.00 0.00 0.00 38 1006.0
20260902151306 76 244 6.0 18.0 0.00 0.00 0.00 39 1006.0
20260902150803 75 232 6.0 18.0 0.00 0.00 0.00 40 1006.0
20260902150308 75 249 6.0 18.0 0.00 0.00 0.00 42 1005.9
20260902145755 75 181 5.0 18.0 0.00 0.00 0.00 41 1005.8
20260902145255 75 156 4.0 17.0 0.00 0.00 0.00 42 1005.7
20260902144129 74 169 7.0 17.0 0.00 0.00 0.00 43 1005.7
20260902143636 74 177 6.0 17.0 0.00 0.00 0.00 43 1005.6
20260902143125 74 150 5.0 16.0 0.00 0.00 0.00 44 1005.6
20260902142626 73 258 6.0 16.0 0.00 0.00 0.00 44 1005.6
20260902142131 73 202 5.0 16.0 0.00 0.00 0.00 44 1005.7
20260902141630 73 217 4.0 13.0 0.00 0.00 0.00 44 1005.7
20260902141133 73 245 4.0 10.0 0.00 0.00 0.00 45 1005.6
20260902140632 72 230 4.0 11.0 0.00 0.00 0.00 45 1005.7
20260902135516 72 161 3.0 12.0 0.00 0.00 0.00 46 1005.7
20260902134958 71 166 4.0 12.0 0.00 0.00 0.00 46 1005.6
20260902133826 69 271 2.0 8.0 0.00 0.00 0.00 50 1005.5
20260902132718 68 188 2.0 7.0 0.00 0.00 0.00 52 1005.7
20260902131545 68 188 2.0 6.0 0.00 0.00 0.00 53 1005.9
20260902131054 68 237 2.0 8.0 0.00 0.00 0.00 53 1005.8
20260902130602 68 243 2.0 8.0 0.00 0.00 0.00 53 1005.7
20260902130106 68 171 2.0 8.0 0.00 0.00 0.00 52 1005.7
20260902125608 68 260 3.0 8.0 0.00 0.00 0.00 52 1005.6
20260902125104 68 185 3.0 8.0 0.00 0.00 0.00 52 1005.7
20260902124601 68 250 2.0 7.0 0.00 0.00 0.00 52 1005.6
20260902124112 67 247 1.0 6.0 0.00 0.00 0.00 52 1005.6
20260902123554 67 275 0.0 4.0 0.00 0.00 0.00 52 1005.7
20260902123035 68 258 0.0 4.0 0.00 0.00 0.00 51 1005.7
20260902122534 68 257 0.0 4.0 0.00 0.00 0.00 51 1005.7
20260902122021 69 274 1.0 5.0 0.00 0.00 0.00 50 1005.6
20260902121509 69 192 1.0 5.0 0.00 0.00 0.00 49 1005.6
20260902121005 69 286 1.0 6.0 0.00 0.00 0.00 49 1005.7
20260902120514 69 290 1.0 6.0 0.00 0.00 0.00 49 1005.6
20260902120018 69 252 1.0 6.0 0.00 0.00 0.00 48 1005.5
20260902115517 69 270 1.0 6.0 0.00 0.00 0.00 48 1005.5
20260902115023 69 266 1.0 6.0 0.00 0.00 0.00 47 1005.5
20260902114509 70 269 2.0 7.0 0.00 0.00 0.00 47 1005.5
20260902113326 70 265 1.0 7.0 0.00 0.00 0.00 46 1005.6
20260902112833 69 260 1.0 7.0 0.00 0.00 0.00 46 1005.5
20260902112336 69 256 1.0 5.0 0.00 0.00 0.00 45 1005.5
20260902111833 70 271 1.0 6.0 0.00 0.00 0.00 45 1005.4
20260902111322 70 257 1.0 6.0 0.00 0.00 0.00 45 1005.3
20260902105520 70 253 2.0 6.0 0.00 0.00 0.00 46 1005.3
20260902105014 70 256 2.0 6.0 0.00 0.00 0.00 46 1005.4
20260902104509 70 268 1.0 5.0 0.00 0.00 0.00 46 1005.3
20260902104008 70 279 1.0 5.0 0.00 0.00 0.00 47 1005.4
20260902103454 70 267 1.0 6.0 0.00 0.00 0.00 47 1005.4
20260902102954 70 272 1.0 6.0 0.00 0.00 0.00 46 1005.4
20260902101840 70 263 2.0 6.0 0.00 0.00 0.00 46 1005.4
20260902101335 70 259 1.0 6.0 0.00 0.00 0.00 46 1005.5
20260902100840 69 233 1.0 6.0 0.00 0.00 0.00 46 1005.6
20260902100329 69 268 1.0 6.0 0.00 0.00 0.00 47 1005.5
20260902095825 68 265 1.0 4.0 0.00 0.00 0.00 48 1005.6
20260902095319 68 261 1.0 4.0 0.00 0.00 0.00 49 1005.7
20260902094816 68 206 0.0 4.0 0.00 0.00 0.00 49 1005.6
20260902094321 69 272 0.0 4.0 0.00 0.00 0.00 49 1005.7
20260902093815 69 258 1.0 7.0 0.00 0.00 0.00 49 1005.8
20260902093302 69 294 1.0 7.0 0.00 0.00 0.00 49 1005.9
20260902092748 69 270 2.0 9.0 0.00 0.00 0.00 49 1005.9
20260902092247 70 267 2.0 9.0 0.00 0.00 0.00 50 1005.8
20260902091735 70 237 2.0 10.0 0.00 0.00 0.00 50 1005.9
20260902091234 70 182 3.0 10.0 0.00 0.00 0.00 49 1005.8
20260902090732 71 228 3.0 10.0 0.00 0.00 0.00 49 1005.9
20260902090223 70 237 3.0 10.0 0.00 0.00 0.00 50 1005.7
20260902085710 70 232 3.0 9.0 0.00 0.00 0.00 50 1005.7
20260902085217 71 226 3.0 9.0 0.00 0.00 0.00 49 1005.8
20260902084105 70 204 3.0 8.0 0.00 0.00 0.00 50 1005.7
20260902083559 70 212 3.0 8.0 0.00 0.00 0.00 51 1005.8
20260902083046 71 177 3.0 9.0 0.00 0.00 0.00 51 1005.8
20260902082557 71 222 4.0 9.0 0.00 0.00 0.00 51 1005.8
20260902082041 71 208 4.0 12.0 0.00 0.00 0.00 51 1005.7
20260902081523 71 219 4.0 12.0 0.00 0.00 0.00 50 1005.8
20260902080413 71 234 5.0 13.0 0.00 0.00 0.00 49 1005.8
20260902075919 71 182 4.0 13.0 0.00 0.00 0.00 49 1005.7
20260902075403 71 229 5.0 15.0 0.00 0.00 0.00 49 1005.8
20260902074906 72 160 5.0 15.0 0.00 0.00 0.00 48 1005.7
20260902073802 72 261 4.0 15.0 0.00 0.00 0.00 47 1005.6
20260902073254 72 170 4.0 14.0 0.00 0.00 0.00 46 1005.5
20260902072748 72 206 4.0 13.0 0.00 0.00 0.00 46 1005.4
20260902072238 72 175 4.0 13.0 0.00 0.00 0.00 46 1005.4
20260902071724 72 268 4.0 10.0 0.00 0.00 0.00 46 1005.3
20260902071211 73 236 4.0 12.0 0.00 0.00 0.00 46 1005.3
20260902070715 73 255 5.0 12.0 0.00 0.00 0.00 46 1005.3
20260902070225 73 210 4.0 12.0 0.00 0.00 0.00 46 1005.3
20260902065722 72 208 4.0 12.0 0.00 0.00 0.00 46 1005.3
20260902065219 72 239 4.0 11.0 0.00 0.00 0.00 47 1005.4
20260902064716 72 141 4.0 11.0 0.00 0.00 0.00 47 1005.4
20260902063556 72 201 4.0 11.0 0.00 0.00 0.00 49 1005.4
20260902063052 72 218 3.0 11.0 0.00 0.00 0.00 50 1005.4
20260902062556 72 157 3.0 11.0 0.00 0.00 0.00 50 1005.3
20260902061414 71 247 2.0 7.0 0.00 0.00 0.00 51 1005.4
20260902060924 71 258 2.0 7.0 0.00 0.00 0.00 50 1005.4
20260902060412 72 242 2.0 10.0 0.00 0.00 0.00 50 1005.4
20260902055853 72 258 3.0 11.0 0.00 0.00 0.00 49 1005.5
20260902055357 72 258 3.0 11.0 0.00 0.00 0.00 49 1005.4
20260902054846 72 269 3.0 11.0 0.00 0.00 0.00 49 1005.5
20260902054333 72 186 4.0 11.0 0.00 0.00 0.00 49 1005.5
20260902053828 72 135 3.0 8.0 0.00 0.00 0.00 49 1005.5